User: anonymous   Login
Location: Lecco
(45.8566°N, 9.3977°E)
Time: 01:46:54
(UTC+02:00)
Language:

Tiros 1 - Orbit

View from above orbital plane
View from above orbital plane
View from above satellite
View from above satellite

Ground track
Ground track

The orbit data is extracted from the following two-line orbital elements,

1    29U 60002B   19200.82182680 -.00000161  00000-0  70069-5 0  9992
2    29  48.3804  83.0729 0024464 245.9228 113.9124 14.74310728169421
Epoch (UTC): 19 July 2019 19:43:25
Eccentricity: 0.0024464
inclination: 48.3804°
perigee height: 630 km
apogee height: 664 km
right ascension of ascending node: 83.0729°
argument of perigee: 245.9228°
revolutions per day: 14.74310728
mean anomaly at epoch: 113.9124°
orbit number at epoch: 16942

The dashed part of the orbit path shows where the satellite is in the earth's shadow,  

DLR